This is the latest recevied weather packets stored in our database for station/object F5LKO-13. If no packets are shown the sender has not sent any weather packets the latest 10 day(s).
| Time | Temp. | Humidity | Pressure | Rain* | Wind** | Luminosity | Snow |
|---|---|---|---|---|---|---|---|
| 1778076257 | 17.78° C | 99% | 1015.7 hPa | 0 mm | - | 5 W/m² | - |
| 1778075951 | 18.33° C | 99% | 1015.6 hPa | 0 mm | - | 6 W/m² | - |
| 1778075644 | 18.89° C | 99% | 1015.6 hPa | 0 mm | - | 7 W/m² | - |
| 1778075338 | 18.89° C | 99% | 1015.6 hPa | 0 mm | - | 10 W/m² | - |
| 1778075041 | 18.33° C | 99% | 1015.6 hPa | 0 mm | - | 37 W/m² | - |
| 1778074726 | 17.78° C | 99% | 1015.6 hPa | 0 mm | - | 13 W/m² | - |
| 1778074421 | 17.78° C | 99% | 1015.5 hPa | 0 mm | - | 8 W/m² | - |
| 1778074115 | 17.78° C | 99% | 1015.5 hPa | 0 mm | - | 9 W/m² | - |
| 1778073809 | 17.78° C | 99% | 1015.5 hPa | 0 mm | - | 12 W/m² | - |
| 1778073503 | 18.33° C | 99% | 1015.4 hPa | 0 mm | - | 9 W/m² | - |
| 1778073206 | 18.89° C | 99% | 1015.3 hPa | 0 mm | - | 9 W/m² | - |
| 1778072892 | 18.89° C | 99% | 1015.3 hPa | 0 mm | - | 18 W/m² | - |
| 1778072586 | 18.89° C | 99% | 1015.2 hPa | 0 mm | - | 14 W/m² | - |
| 1778072279 | 17.78° C | 99% | 1015.2 hPa | 0 mm | - | 44 W/m² | - |
| 1778071973 | 17.22° C | 99% | 1015.2 hPa | 0 mm | - | 27 W/m² | - |
| 1778071667 | 16.67° C | 99% | 1015.2 hPa | 0 mm | - | 4 W/m² | - |
| 1778071370 | 16.67° C | 99% | 1015.2 hPa | 0 mm | - | 5 W/m² | - |
| 1778071055 | 16.67° C | 99% | 1015.2 hPa | 0 mm | - | 5 W/m² | - |
| 1778070750 | 16.11° C | 99% | 1015.2 hPa | 0 mm | - | 5 W/m² | - |
| 1778070443 | 16.11° C | 99% | 1015.2 hPa | 0 mm | - | 2 W/m² | - |
| 1778070137 | 16.11° C | 99% | 1015.1 hPa | 0 mm | - | 6 W/m² | - |
| 1778069831 | 16.67° C | 99% | 1015.1 hPa | 0 mm | - | 2 W/m² | - |
| 1778069533 | 18.33° C | 99% | 1015.1 hPa | 0 mm | - | 1 W/m² | - |
| 1778069219 | 18.33° C | 99% | 1015 hPa | 0 mm | - | 7 W/m² | - |
| 1778068913 | 17.78° C | 99% | 1014.9 hPa | 0 mm | - | 37 W/m² | - |
* Rain latest hour (hover to see other rain measurements)
** Current wind speed in m/s (hover to see current wind gust speed)